[[{"header":{"parameterUnit":"m.s-1","parameterCategory":1,"la1":30.2991,"la2":30.254,"lo1":-89.0895,"lo2":-89.0444,"dx":0.0017,"dy":0.0017,"nx":28,"ny":28,"refTime":"2023-01-27T15:00:00:Z","depth":0,"parameterNumber":2,"parameterNumberName":"U-component_of_WINDS"},"data":[0,0,0,0,0,0,0,0,0,0,0,0,0,0,0,0,0,0,0,0,0,0,0,0,0,0,0,0,0,0,0,0,0,0,0,0,0,0,0,0,0,0,0,0,0,0,0,0,0,0,0,0,0,0,0,0,0,0,-6.8727,-6.8728,0,-6.8794,-6.8794,-6.8795,-6.8751,-6.8749,-6.8747,-6.8745,-6.8809,-6.8813,-6.8816,0,0,0,0,0,0,0,0,0,0,0,0,0,-6.856,-6.8563,-6.8727,-6.8728,-6.8729,-6.8793,-6.8794,-6.8795,-6.8751,-6.8749,-6.8746,-6.8744,-6.8808,-6.8812,-6.8817,0,0,0,0,0,0,0,0,0,0,0,0,0,-6.863,-6.8564,-6.8727,-6.8715,-6.8714,-6.8793,-6.8794,-6.8795,-6.8752,-6.8749,-6.8746,-6.8743,-6.8807,-6.8812,-6.8817,-6.8911,0,0,-6.8834,-6.8836,0,0,0,0,0,0,0,0,-6.8626,-6.8636,-6.8715,-6.8716,-6.8715,-6.8761,-6.8759,-6.8834,-6.8752,-6.8737,-6.8745,-6.8741,-6.8795,-6.8801,-6.882,-6.8914,-6.8917,-6.8834,-6.8837,-6.884,-6.8841,0,0,0,0,0,0,0,-6.8621,-6.8633,-6.8753,-6.8717,-6.8717,-6.8705,-6.8712,-6.8773,-6.8782,-6.8738,-6.8735,-6.8744,-6.8795,-6.8815,-6.8822,-6.8918,-6.8834,-6.8839,-6.8842,-6.8844,-6.9092,-6.9095,0,0,0,0,0,0,-6.8618,-6.8629,-6.8751,-6.8755,-6.8662,-6.8711,-6.8718,-6.8749,-6.8782,-6.8784,-6.8746,-6.8742,-6.8808,-6.8815,-6.8824,-6.8935,-6.884,-6.8845,-6.8848,-6.9089,-6.9093,-6.9096,0,0,0,0,0,0,-6.8614,-6.8629,-6.8748,-6.8691,-6.8706,-6.8717,-6.8752,-6.8752,-6.8773,-6.8788,-6.8789,-6.8766,-6.8806,-6.8816,-6.889,-6.8936,-6.8847,-6.8852,-6.9085,-6.909,-6.9095,-6.9158,0,0,0,0,0,0,-6.861,-6.8628,-6.8664,-6.8693,-6.8709,-6.8814,-6.8755,-6.8756,-6.8783,-6.8777,-6.8806,-6.8808,-6.8804,-6.8882,-6.8895,-6.8942,-6.8856,-6.908,-6.9087,-6.9093,-6.9152,-6.9165,-6.9176,0,0,0,0,0,-6.8604,-6.8678,-6.8666,-6.8681,-6.8754,-6.8817,-6.8826,-6.882,-6.8787,-6.8822,-6.8832,-6.8807,-6.893,-6.889,-6.8905,-6.8954,-6.9077,-6.9085,-6.9092,-6.9146,-6.9162,-6.9175,0,0,0,0,0,0,-6.8653,-6.8682,-6.8668,-6.8754,-6.8784,-6.8809,-6.8854,-6.8837,-6.8876,-6.8868,-6.8859,-6.8867,-6.8944,-6.8957,-6.8911,-6.9047,-6.8998,-6.9009,-6.9034,-6.9049,-6.9061,-6.9055,-6.8861,0,0,0,0,0,-6.8674,-6.8723,-6.8746,-6.882,-6.8835,-6.8843,-6.887,-6.8863,-6.8893,-6.8904,-6.8919,-6.8948,-6.8993,-6.9023,-6.9065,-6.9155,-6.916,-6.9196,-6.9208,-6.9218,-6.9226,-6.9274,-6.929,-6.9121,-6.9121,-6.9121,0,0,-6.8717,-6.8739,-6.877,-6.883,-6.8852,-6.8902,-6.8853,-6.8908,-6.8945,-6.8912,-6.8982,-6.8996,-6.9027,-6.9109,-6.9146,-6.9122,-6.9275,-6.9228,-6.9235,-6.9238,-6.9283,-6.9299,-6.9314,-6.9126,-6.9125,-6.9124,0,0,-6.8821,-6.8844,-6.8907,-6.8931,-6.8966,-6.8971,-6.8987,-6.9016,-6.9023,-6.9094,-6.9071,-6.9115,-6.9193,-6.9216,-6.9238,-6.9355,-6.9333,-6.937,-6.943,-6.9477,-6.949,-6.9502,-6.9541,-6.9556,-6.9378,-6.9379,-6.9379,0,-6.887,-6.8945,-6.8942,-6.8999,-6.9026,-6.9002,-6.9066,-6.9089,-6.9135,-6.9153,-6.9127,-6.9225,-6.9245,-6.9332,-6.9361,-6.938,-6.9396,-6.9364,-6.9489,-6.9501,-6.9511,-6.9549,-6.9564,-6.9383,-6.9382,-6.9382,-6.9381,0,-6.9003,-6.9056,-6.9103,-6.915,-6.9183,-6.9243,-6.9248,-6.9282,-6.9274,-6.9282,-6.9355,-6.9378,-6.9425,-6.9446,-6.9438,-6.9532,-6.9516,-6.949,-6.9441,-6.9531,-6.9566,-6.9581,-6.9388,-6.9387,-6.9386,-6.9385,0,0,-6.9135,-6.9182,-6.9199,-6.922,-6.9258,-6.9299,-6.9359,-6.9406,-6.9434,-6.9468,-6.9517,-6.9585,-6.9562,-6.9587,-6.9582,-6.9624,-6.9713,-6.9592,-6.9593,-6.9612,-6.9817,-6.9834,-6.9851,-6.9701,-6.9704,-6.9706,-6.9813,0,-6.9239,-6.9344,-6.9344,-6.944,-6.9489,-6.9469,-6.9521,-6.955,-6.956,-6.9602,-6.9612,-6.966,-6.9626,-6.9641,-6.9682,-6.9694,-6.9754,-6.9687,-6.9744,-6.9746,-6.9733,-6.9869,-6.9887,-6.9987,-6.9827,-6.983,-6.9831,0,-6.9373,-6.9413,-6.9515,-6.9547,-6.9567,-6.9614,-6.9658,-6.9699,-6.9732,-6.9736,-6.9767,-6.9756,-6.9816,-6.9769,-6.9852,-6.9806,-6.983,-6.984,-6.9844,-6.9846,-6.9791,-6.9872,-7.0019,-7.0033,-6.9853,-6.9852,-6.985,0,-6.9456,-6.9536,-6.9607,-6.9626,-6.9666,-6.9699,-6.9717,-6.9747,-6.9776,-6.9815,-6.9833,-6.9879,-6.9902,-6.9937,-6.9939,-6.9905,-7.0022,-6.9975,-7.0025,-7.0025,-7.0047,-7.0045,-7.0197,-7.0069,-7.0069,-7.0069,-7.0068,0,-6.957,-6.9632,-6.9645,-6.9688,-6.9757,-6.9758,-6.9826,-6.9842,-6.9869,-6.9914,-6.9901,-6.9943,-6.9945,-6.9989,-6.9991,-7.0058,-7.007,-7.0074,-7.0073,-7.0073,-7.0072,-7.0086,-7.0077,-7.0073,-7.0072,-7.0071,-7.007,0,-6.9672,-6.9683,-6.9759,-6.9792,-6.9802,-6.9852,-6.9879,-6.992,-6.9931,-6.9988,-7.0002,-7.0017,-7.0068,-7.0075,-7.0135,-7.0136,-7.0216,-7.021,-7.0205,-7.0203,-7.0252,-7.0246,-7.0415,-7.0436,-7.0298,-7.0299,-7.03,0,-6.9742,-6.979,-6.9829,-6.9859,-6.988,-6.9928,-6.9958,-6.9962,-6.9993,-7.0036,-7.0072,-7.0122,-7.0162,-7.0244,-7.026,-7.0306,-7.0298,-7.0354,-7.0304,-7.0303,-7.0295,-7.0291,-7.0295,-7.0362,-7.0364,-7.0365,-7.0366,0,-6.9865,-6.9869,-6.9913,-6.996,-6.9997,-7.0034,-7.0068,-7.0094,-7.0102,-7.0138,-7.0191,-7.0222,-7.0284,-7.0333,-7.0379,-7.0397,-7.0382,-7.0383,-7.0396,-7.0394,-7.0389,-7.039,-7.0228,-7.0377,-7.0376,-7.0375,-7.0375,-7.0374,-6.9951,-6.9993,-7.0027,-7.0077,-7.0104,-7.0138,-7.0178,-7.0195,-7.0239,-7.029,-7.029,-7.0348,-7.0381,-7.0441,-7.0462,-7.0507,-7.0488,-7.0508,-7.0513,-7.0517,-7.052,-7.0385,-7.0516,-7.0515,-7.0515,-7.0515,-7.0515,0,-7.0071,-7.0093,-7.0139,-7.0189,-7.0229,-7.0215,-7.0254,-7.0287,-7.0338,-7.0371,-7.0411,-7.0472,-7.0521,-7.0542,-7.059,-7.0622,-7.0616,-7.0634,-7.0629,-7.0633,-7.0536,-7.0518,-7.0637,-7.0637,-7.0637,-7.0637,-7.0637,-7.0637,-7.0137,-7.0206,-7.0215,-7.0297,-7.0319,-7.0376,-7.0399,-7.043,-7.0456,-7.0525,-7.0566,-7.058,-7.0608,-7.0658,-7.0702,-7.0707,-7.0724,-7.0744,-7.0746,-7.0653,-7.064,-7.0628,-7.0611,-7.0748,-7.0749,-7.0839,-7.084,-7.0841]},{"header":{"parameterUnit":"m.s-1","parameterCategory":1,"la1":30.2991,"la2":30.254,"lo1":-89.0895,"lo2":-89.0444,"dx":0.0017,"dy":0.0017,"nx":28,"ny":28,"refTime":"2023-01-27T15:00:00:Z","depth":0,"parameterNumber":3,"parameterNumberName":"V-component_of_WINDS"},"data":[0,0,0,0,0,0,0,0,0,0,0,0,0,0,0,0,0,0,0,0,0,0,0,0,0,0,0,0,0,0,0,0,0,0,0,0,0,0,0,0,0,0,0,0,0,0,0,0,0,0,0,0,0,0,0,0,0,0,2.9189,2.919,0,2.9263,2.9264,2.9264,2.9338,2.9339,2.934,2.9341,2.9413,2.9414,2.9415,0,0,0,0,0,0,0,0,0,0,0,0,0,2.911,2.9111,2.9189,2.919,2.9191,2.9263,2.9264,2.9265,2.9337,2.9339,2.934,2.9341,2.9412,2.9413,2.9415,0,0,0,0,0,0,0,0,0,0,0,0,0,2.916,2.9111,2.9189,2.9236,2.9241,2.9262,2.9264,2.9265,2.9337,2.9339,2.934,2.9342,2.9412,2.9413,2.9415,2.9395,0,0,2.9419,2.942,0,0,0,0,0,0,0,0,2.9157,2.9163,2.9228,2.9233,2.9238,2.9293,2.9262,2.9308,2.9337,2.93,2.9341,2.9342,2.9371,2.9376,2.9387,2.9398,2.9401,2.942,2.942,2.9421,2.9421,0,0,0,0,0,0,0,2.9153,2.916,2.9218,2.9229,2.9235,2.9253,2.9262,2.9271,2.9327,2.9304,2.9309,2.9317,2.9374,2.9385,2.9389,2.9402,2.9419,2.9421,2.9422,2.9422,2.9404,2.9403,0,0,0,0,0,0,2.9143,2.9157,2.9216,2.922,2.9201,2.9253,2.9263,2.9274,2.9327,2.9336,2.9316,2.932,2.9382,2.9387,2.9392,2.9374,2.9421,2.9422,2.9423,2.9405,2.9404,2.9402,0,0,0,0,0,0,2.9141,2.9148,2.9213,2.919,2.92,2.9253,2.9264,2.9274,2.9285,2.9336,2.9346,2.9317,2.9383,2.939,2.9394,2.9377,2.9423,2.9425,2.9407,2.9405,2.9403,2.9337,0,0,0,0,0,0,2.9139,2.9147,2.914,2.9189,2.9201,2.9214,2.9263,2.9275,2.9288,2.9295,2.9339,2.9348,2.9385,2.9392,2.9396,2.938,2.9426,2.9409,2.9406,2.9404,2.9341,2.9333,2.9326,0,0,0,0,0,2.9135,2.9117,2.9139,2.9146,2.9193,2.9213,2.922,2.9263,2.9286,2.928,2.9313,2.9347,2.9378,2.9392,2.9397,2.9381,2.941,2.9407,2.9404,2.9344,2.9334,2.9326,0,0,0,0,0,0,2.9061,2.9124,2.9149,2.9146,2.9174,2.9226,2.9219,2.9251,2.9272,2.9277,2.9329,2.9338,2.9337,2.936,2.9373,2.9366,2.9399,2.9397,2.9352,2.9343,2.9336,2.9331,2.9427,0,0,0,0,0,2.9045,2.9057,2.911,2.9102,2.9115,2.9164,2.9175,2.9206,2.9237,2.9248,2.9282,2.9309,2.9326,2.9336,2.9353,2.9344,2.9356,2.9336,2.9329,2.9323,2.932,2.9319,2.9312,2.9392,2.9392,2.9392,0,0,2.9011,2.9046,2.905,2.9088,2.9114,2.9125,2.9174,2.9183,2.9192,2.9249,2.9257,2.9282,2.9317,2.9315,2.9316,2.9334,2.9301,2.9319,2.9313,2.9314,2.9315,2.9308,2.9301,2.939,2.939,2.939,0,0,2.8954,2.8982,2.898,2.9005,2.9043,2.9077,2.9076,2.9123,2.9143,2.9152,2.9196,2.9207,2.9234,2.9258,2.9273,2.9228,2.9261,2.9232,2.9193,2.9192,2.9186,2.9181,2.9167,2.9161,2.923,2.9229,2.9229,0,2.8907,2.8926,2.8974,2.8981,2.8998,2.9052,2.9051,2.9072,2.9114,2.9124,2.9143,2.918,2.9207,2.9213,2.9203,2.9212,2.9214,2.9228,2.9183,2.9178,2.9174,2.9161,2.9156,2.9226,2.9226,2.9227,2.9227,0,2.8866,2.8879,2.8872,2.8914,2.8929,2.8932,2.898,2.899,2.902,2.9052,2.9061,2.9095,2.9122,2.9126,2.9154,2.9136,2.9147,2.9174,2.9208,2.9162,2.9151,2.9146,2.9221,2.9222,2.9223,2.9224,0,0,2.8765,2.8835,2.8831,2.8852,2.89,2.891,2.8916,2.8944,2.8952,2.8979,2.8986,2.9009,2.9035,2.9053,2.9085,2.9083,2.9048,2.9111,2.9113,2.91,2.9033,2.9013,2.9007,2.907,2.9069,2.9069,2.9031,0,2.8718,2.8733,2.8777,2.8778,2.8792,2.8845,2.885,2.888,2.8909,2.8925,2.8957,2.8973,2.9006,2.9017,2.9018,2.9052,2.9036,2.9056,2.9077,2.9078,2.9069,2.9001,2.8979,2.8942,2.9027,2.9026,2.9025,0,2.8665,2.8691,2.8694,2.8744,2.8751,2.8755,2.8786,2.88,2.8835,2.8857,2.8878,2.8914,2.8923,2.8955,2.8969,2.8981,2.8993,2.9011,2.9011,2.9015,2.9049,2.9005,2.8931,2.8925,2.9019,2.9019,2.902,0,2.8593,2.8629,2.8636,2.8652,2.8709,2.8711,2.8735,2.8772,2.8787,2.8813,2.8824,2.885,2.8864,2.8884,2.8927,2.8945,2.8937,2.8971,2.8956,2.8955,2.8952,2.8952,2.888,2.8957,2.8957,2.8957,2.8957,0,2.8537,2.8537,2.8605,2.861,2.8612,2.8663,2.8664,2.8692,2.8725,2.8737,2.8783,2.8792,2.8848,2.8864,2.8897,2.8905,2.891,2.8929,2.8938,2.8925,2.8923,2.8934,2.8939,2.8956,2.8956,2.8956,2.8957,0,2.8457,2.8502,2.8514,2.8569,2.8583,2.8582,2.8628,2.8635,2.8668,2.8682,2.8688,2.874,2.8761,2.8806,2.8838,2.8861,2.8861,2.8876,2.885,2.8856,2.8839,2.884,2.8773,2.8767,2.8845,2.8845,2.8844,0,2.8419,2.8421,2.8476,2.8488,2.8511,2.8528,2.8545,2.8595,2.861,2.8652,2.8653,2.8679,2.8702,2.8733,2.8774,2.8799,2.8817,2.8791,2.8821,2.8809,2.8818,2.8818,2.882,2.8785,2.8783,2.8783,2.8782,0,2.8347,2.837,2.8392,2.8423,2.8442,2.8467,2.8496,2.8503,2.856,2.8574,2.8598,2.8616,2.8651,2.8676,2.8708,2.8732,2.8767,2.8772,2.8771,2.8758,2.8744,2.8753,2.8834,2.8774,2.8775,2.8775,2.8776,2.8776,2.8289,2.8294,2.8334,2.8358,2.8385,2.8411,2.8421,2.8457,2.8477,2.8511,2.8539,2.856,2.8597,2.8645,2.8667,2.8684,2.8701,2.8698,2.8697,2.8696,2.8692,2.874,2.869,2.869,2.8691,2.8691,2.8691,0,2.8221,2.825,2.8272,2.8311,2.833,2.8362,2.8396,2.841,2.8428,2.846,2.8483,2.8511,2.8536,2.8579,2.8607,2.8613,2.863,2.8619,2.862,2.8625,2.8674,2.8674,2.8605,2.8605,2.8605,2.8605,2.8605,2.8605,2.8188,2.82,2.8228,2.8253,2.8283,2.8305,2.8322,2.8346,2.8373,2.8402,2.8424,2.8452,2.8489,2.8521,2.8546,2.8558,2.8567,2.8551,2.8568,2.8613,2.8621,2.8629,2.8629,2.8552,2.8552,2.8518,2.8518,2.8518]}]]